Location: Callanans Corners
(42.5326°N, 73.8846°W)
Time: 14:04:20
(UTC+00:00)

Cosmos 1782 Rocket - Pass Details

Date: 06 October 2022
Orbit: 606 x 631 km, 82.5° (Epoch: 28 November)

Event Time Altitude Azimuth Distance (km) Brightness Sun altitude
Rises 23:19:50 0° 165° (SSE) 2,851 6.8 -10.3°
Reaches altitude 10° 23:22:09 10° 157° (SSE) 1,955 5.9 -10.8°
Maximum altitude 23:26:06 35° 91° (E) 985 4.1 -11.5°
Drops below altitude 10° 23:30:06 10° 25° (NNE) 1,981 5.9 -12.2°
Sets 23:32:28 0° 17° (NNE) 2,896 6.9 -12.7°
